******** Week 357 almanac for PRN-1 ******** ID: 1 Health: 0 Eccentricity: 0.00151348114 Time of Applicability(s): 589824 Orbital Inclination(rad): 0.9584287994 Rate of Right Ascen(r/s): -7.874613723e-09 SQRT(A) (m 1/2): 5153.581543 Right Ascen at Week(rad): -2.773413672 Argument of Perigee(rad): 0.0478069457 Mean Anom(rad): 1.619520441 Af0(s): 0.0002622786621 Af1(s/s): -3.637979e-12 week: 357 ******** Week 357 almanac for PRN-2 ******** ID: 2 Health: 0 Eccentricity: 0.01694965363 Time of Applicability(s): 589824 Orbital Inclination(rad): 0.9638037243 Rate of Right Ascen(r/s): -7.691748963e-09 SQRT(A) (m 1/2): 5153.557129 Right Ascen at Week(rad): -2.935939236 Argument of Perigee(rad): -0.8246053045 Mean Anom(rad): 3.053678253 Af0(s): 3.014697266e-05 Af1(s/s): 7.275958e-12 week: 357 ******** Week 357 almanac for PRN-3 ******** ID: 3 Health: 0 Eccentricity: 0.006426811218 Time of Applicability(s): 589824 Orbital Inclination(rad): 0.9928654697 Rate of Right Ascen(r/s): -7.943188008e-09 SQRT(A) (m 1/2): 5153.587891 Right Ascen at Week(rad): -1.786871154 Argument of Perigee(rad): 1.205177474 Mean Anom(rad): -0.5516473549 Af0(s): 0.0004499435669 Af1(s/s): -1.091394e-11 week: 357 ******** Week 357 almanac for PRN-4 ******** ID: 4 Health: 0 Eccentricity: 0.003739833832 Time of Applicability(s): 589824 Orbital Inclination(rad): 0.9705508429 Rate of Right Ascen(r/s): -7.760323248e-09 SQRT(A) (m 1/2): 5153.697754 Right Ascen at Week(rad): -0.7156949156 Argument of Perigee(rad): -2.888355122 Mean Anom(rad): 2.454998059 Af0(s): 3.466901855e-05 Af1(s/s): 3.637979e-12 week: 357 ******** Week 357 almanac for PRN-5 ******** ID: 5 Health: 0 Eccentricity: 0.005381584167 Time of Applicability(s): 589824 Orbital Inclination(rad): 0.9794491299 Rate of Right Ascen(r/s): -8.080336578e-09 SQRT(A) (m 1/2): 5153.645508 Right Ascen at Week(rad): -1.846429755 Argument of Perigee(rad): 1.420364344 Mean Anom(rad): 3.102098267 Af0(s): -0.0001808818359 Af1(s/s): 0 week: 357 ******** Week 357 almanac for PRN-6 ******** ID: 6 Health: 0 Eccentricity: 0.003873348236 Time of Applicability(s): 589824 Orbital Inclination(rad): 0.9873527262 Rate of Right Ascen(r/s): -7.543171346e-09 SQRT(A) (m 1/2): 5153.586426 Right Ascen at Week(rad): -2.823321602 Argument of Perigee(rad): -0.5868457724 Mean Anom(rad): 0.791913837 Af0(s): -0.0004823515625 Af1(s/s): -3.637979e-12 week: 357 ******** Week 357 almanac for PRN-7 ******** ID: 7 Health: 0 Eccentricity: 0.0203666687 Time of Applicability(s): 589824 Orbital Inclination(rad): 0.9513101698 Rate of Right Ascen(r/s): -7.680319916e-09 SQRT(A) (m 1/2): 5153.580078 Right Ascen at Week(rad): 0.2927637539 Argument of Perigee(rad): -1.997228755 Mean Anom(rad): -0.08967458444 Af0(s): -0.0001175731934 Af1(s/s): -3.637979e-12 week: 357 ******** Week 357 almanac for PRN-8 ******** ID: 8 Health: 0 Eccentricity: 0.01153707504 Time of Applicability(s): 589824 Orbital Inclination(rad): 0.9436282817 Rate of Right Ascen(r/s): -7.886042771e-09 SQRT(A) (m 1/2): 5153.624512 Right Ascen at Week(rad): 2.340698514 Argument of Perigee(rad): 0.5155984318 Mean Anom(rad): 2.747203423 Af0(s): 0.0003888959473 Af1(s/s): -3.637979e-12 week: 357 ******** Week 357 almanac for PRN-9 ******** ID: 9 Health: 0 Eccentricity: 0.0033826828 Time of Applicability(s): 589824 Orbital Inclination(rad): 0.9646605964 Rate of Right Ascen(r/s): -7.874613723e-09 SQRT(A) (m 1/2): 5153.743164 Right Ascen at Week(rad): -0.7798292442 Argument of Perigee(rad): 2.074977538 Mean Anom(rad): -2.944964855 Af0(s): 0.0006082151733 Af1(s/s): 0 week: 357 ******** Week 357 almanac for PRN-10 ******** ID: 10 Health: 0 Eccentricity: 0.01095628738 Time of Applicability(s): 589824 Orbital Inclination(rad): 0.9924100691 Rate of Right Ascen(r/s): -7.943188008e-09 SQRT(A) (m 1/2): 5153.602051 Right Ascen at Week(rad): -1.789382223 Argument of Perigee(rad): -2.258142934 Mean Anom(rad): -1.534472891 Af0(s): -0.0004650170532 Af1(s/s): 0 week: 357 ******** Week 357 almanac for PRN-11 ******** ID: 11 Health: 0 Eccentricity: 0.002215862274 Time of Applicability(s): 589824 Orbital Inclination(rad): 0.9641992037 Rate of Right Ascen(r/s): -7.794610391e-09 SQRT(A) (m 1/2): 5153.521973 Right Ascen at Week(rad): -2.804180173 Argument of Perigee(rad): -2.292484854 Mean Anom(rad): 1.837930693 Af0(s): -0.0003466901855 Af1(s/s): 1.455192e-11 week: 357 ******** Week 357 almanac for PRN-12 ******** ID: 12 Health: 0 Eccentricity: 0.009059906006 Time of Applicability(s): 589824 Orbital Inclination(rad): 0.9588003104 Rate of Right Ascen(r/s): -7.954617056e-09 SQRT(A) (m 1/2): 5153.719238 Right Ascen at Week(rad): 1.410486347 Argument of Perigee(rad): 1.554231507 Mean Anom(rad): -0.7304302691 Af0(s): -0.0004800905395 Af1(s/s): 0 week: 357 ******** Week 357 almanac for PRN-13 ******** ID: 13 Health: 0 Eccentricity: 0.009953022003 Time of Applicability(s): 589824 Orbital Inclination(rad): 0.9762733103 Rate of Right Ascen(r/s): -7.646032773e-09 SQRT(A) (m 1/2): 5153.632324 Right Ascen at Week(rad): -0.6049475697 Argument of Perigee(rad): 0.9985147588 Mean Anom(rad): 2.489212272 Af0(s): 0.0005426455078 Af1(s/s): 0 week: 357 ******** Week 357 almanac for PRN-14 ******** ID: 14 Health: 0 Eccentricity: 0.006632328033 Time of Applicability(s): 589824 Orbital Inclination(rad): 0.9421602141 Rate of Right Ascen(r/s): -8.160339911e-09 SQRT(A) (m 1/2): 5153.583008 Right Ascen at Week(rad): 1.356079089 Argument of Perigee(rad): -2.757165684 Mean Anom(rad): -0.903277996 Af0(s): 0.0005803292236 Af1(s/s): 3.637979e-12 week: 357 ******** Week 357 almanac for PRN-15 ******** ID: 15 Health: 0 Eccentricity: 0.01659917831 Time of Applicability(s): 589824 Orbital Inclination(rad): 0.9424298592 Rate of Right Ascen(r/s): -8.148910863e-09 SQRT(A) (m 1/2): 5153.637695 Right Ascen at Week(rad): -0.9234950089 Argument of Perigee(rad): 1.498886484 Mean Anom(rad): 1.745581379 Af0(s): 0.0003052380981 Af1(s/s): 3.637979e-12 week: 357 ******** Week 357 almanac for PRN-16 ******** ID: 16 Health: 0 Eccentricity: 0.01506328583 Time of Applicability(s): 589824 Orbital Inclination(rad): 0.9579314541 Rate of Right Ascen(r/s): -7.977475151e-09 SQRT(A) (m 1/2): 5153.575684 Right Ascen at Week(rad): 1.427497205 Argument of Perigee(rad): 0.9276093431 Mean Anom(rad): -2.520021842 Af0(s): 0.000164301001 Af1(s/s): 7.275958e-12 week: 357 ******** Week 357 almanac for PRN-17 ******** ID: 17 Health: 0 Eccentricity: 0.01271486282 Time of Applicability(s): 589824 Orbital Inclination(rad): 0.9594115059 Rate of Right Ascen(r/s): -7.760323248e-09 SQRT(A) (m 1/2): 5153.531738 Right Ascen at Week(rad): 2.445141408 Argument of Perigee(rad): -1.125558404 Mean Anom(rad): 2.660904645 Af0(s): -4.974250488e-05 Af1(s/s): -1.091394e-11 week: 357 ******** Week 357 almanac for PRN-18 ******** ID: 18 Health: 0 Eccentricity: 0.005717277527 Time of Applicability(s): 589824 Orbital Inclination(rad): 0.9723065319 Rate of Right Ascen(r/s): -7.691748963e-09 SQRT(A) (m 1/2): 5153.598633 Right Ascen at Week(rad): -2.828125403 Argument of Perigee(rad): -2.861759505 Mean Anom(rad): 0.6773701133 Af0(s): -0.0003361387451 Af1(s/s): 1.091394e-11 week: 357 ******** Week 357 almanac for PRN-19 ******** ID: 19 Health: 0 Eccentricity: 0.0110616684 Time of Applicability(s): 589824 Orbital Inclination(rad): 0.958620547 Rate of Right Ascen(r/s): -7.737465153e-09 SQRT(A) (m 1/2): 5153.665527 Right Ascen at Week(rad): 2.489038875 Argument of Perigee(rad): 2.925703959 Mean Anom(rad): -1.788817467 Af0(s): 0.0005456602051 Af1(s/s): 0 week: 357 ******** Week 357 almanac for PRN-20 ******** ID: 20 Health: 255 Eccentricity: 0.000301361084 Time of Applicability(s): 589824 Orbital Inclination(rad): 0.9600886146 Rate of Right Ascen(r/s): -7.897471818e-09 SQRT(A) (m 1/2): 5153.647461 Right Ascen at Week(rad): -0.7741397334 Argument of Perigee(rad): 1.424761806 Mean Anom(rad): 2.086976743 Af0(s): 0 Af1(s/s): 0 week: 357 ******** Week 357 almanac for PRN-21 ******** ID: 21 Health: 0 Eccentricity: 0.0006742477417 Time of Applicability(s): 589824 Orbital Inclination(rad): 0.9622877198 Rate of Right Ascen(r/s): -8.263201338e-09 SQRT(A) (m 1/2): 5153.70166 Right Ascen at Week(rad): -1.780136019 Argument of Perigee(rad): -0.3938207304 Mean Anom(rad): -0.964263095 Af0(s): 0.0003142821899 Af1(s/s): 3.637979e-12 week: 357 ******** Week 357 almanac for PRN-22 ******** ID: 22 Health: 0 Eccentricity: 0.01213169098 Time of Applicability(s): 589824 Orbital Inclination(rad): 0.9573741876 Rate of Right Ascen(r/s): -8.011762293e-09 SQRT(A) (m 1/2): 5153.562012 Right Ascen at Week(rad): 1.430844549 Argument of Perigee(rad): -0.9943225271 Mean Anom(rad): -2.972559657 Af0(s): -3.69300415e-05 Af1(s/s): 3.637979e-12 week: 357 ******** Week 357 almanac for PRN-23 ******** ID: 23 Health: 0 Eccentricity: 0.006017684936 Time of Applicability(s): 589824 Orbital Inclination(rad): 0.9874186395 Rate of Right Ascen(r/s): -8.000333246e-09 SQRT(A) (m 1/2): 5153.65332 Right Ascen at Week(rad): -1.821405945 Argument of Perigee(rad): -2.740803098 Mean Anom(rad): -0.4445447114 Af0(s): 0.0004838589111 Af1(s/s): 3.637979e-12 week: 357 ******** Week 357 almanac for PRN-24 ******** ID: 24 Health: 0 Eccentricity: 0.01786279678 Time of Applicability(s): 589824 Orbital Inclination(rad): 0.935335198 Rate of Right Ascen(r/s): -7.897471818e-09 SQRT(A) (m 1/2): 5153.600098 Right Ascen at Week(rad): 0.1845963869 Argument of Perigee(rad): 1.133296468 Mean Anom(rad): 0.8914873912 Af0(s): -9.571663818e-05 Af1(s/s): 1.455192e-11 week: 357 ******** Week 357 almanac for PRN-25 ******** ID: 25 Health: 0 Eccentricity: 0.01295757294 Time of Applicability(s): 589824 Orbital Inclination(rad): 0.9471875965 Rate of Right Ascen(r/s): -8.080336578e-09 SQRT(A) (m 1/2): 5153.665039 Right Ascen at Week(rad): 1.316799669 Argument of Perigee(rad): 1.155539564 Mean Anom(rad): -0.8757356256 Af0(s): 0.0003504585571 Af1(s/s): -3.637979e-12 week: 357 ******** Week 357 almanac for PRN-26 ******** ID: 26 Health: 0 Eccentricity: 0.01100063324 Time of Applicability(s): 589824 Orbital Inclination(rad): 0.9279948603 Rate of Right Ascen(r/s): -8.297488481e-09 SQRT(A) (m 1/2): 5153.638672 Right Ascen at Week(rad): 1.242535299 Argument of Perigee(rad): 0.7080920484 Mean Anom(rad): -1.699128276 Af0(s): -0.0002585102905 Af1(s/s): -7.275958e-12 week: 357 ******** Week 357 almanac for PRN-27 ******** ID: 27 Health: 0 Eccentricity: 0.01430797577 Time of Applicability(s): 589824 Orbital Inclination(rad): 0.952760261 Rate of Right Ascen(r/s): -7.806039438e-09 SQRT(A) (m 1/2): 5153.612793 Right Ascen at Week(rad): 2.37258554 Argument of Perigee(rad): 0.8750457837 Mean Anom(rad): 2.844113483 Af0(s): -3.316166992e-05 Af1(s/s): -1.091394e-11 week: 357 ******** Week 357 almanac for PRN-28 ******** ID: 28 Health: 0 Eccentricity: 0.0004000663757 Time of Applicability(s): 589824 Orbital Inclination(rad): 0.9622637514 Rate of Right Ascen(r/s): -7.623174678e-09 SQRT(A) (m 1/2): 5153.738281 Right Ascen at Week(rad): 0.26684974 Argument of Perigee(rad): 0.1397031058 Mean Anom(rad): 0.1178558638 Af0(s): -0.0004702927734 Af1(s/s): 7.275958e-12 week: 357 ******** Week 357 almanac for PRN-29 ******** ID: 29 Health: 0 Eccentricity: 0.003315925598 Time of Applicability(s): 589824 Orbital Inclination(rad): 0.9620660117 Rate of Right Ascen(r/s): -7.691748963e-09 SQRT(A) (m 1/2): 5153.719238 Right Ascen at Week(rad): 2.461814836 Argument of Perigee(rad): 2.74253332 Mean Anom(rad): 2.71343712 Af0(s): -0.0002969476807 Af1(s/s): 7.275958e-12 week: 357 ******** Week 357 almanac for PRN-30 ******** ID: 30 Health: 0 Eccentricity: 0.007997989654 Time of Applicability(s): 589824 Orbital Inclination(rad): 0.9365635811 Rate of Right Ascen(r/s): -7.851755628e-09 SQRT(A) (m 1/2): 5153.71582 Right Ascen at Week(rad): 0.2839957953 Argument of Perigee(rad): -2.330638506 Mean Anom(rad): -0.2352990209 Af0(s): 9.571663818e-05 Af1(s/s): 1.091394e-11 week: 357 ******** Week 357 almanac for PRN-31 ******** ID: 31 Health: 0 Eccentricity: 0.01081991196 Time of Applicability(s): 589824 Orbital Inclination(rad): 0.9550672243 Rate of Right Ascen(r/s): -7.714607058e-09 SQRT(A) (m 1/2): 5153.723145 Right Ascen at Week(rad): 0.3169048514 Argument of Perigee(rad): 0.9371806193 Mean Anom(rad): -1.182486842 Af0(s): -0.0001318930054 Af1(s/s): 3.637979e-12 week: 357 ******** Week 357 almanac for PRN-32 ******** ID: 32 Health: 0 Eccentricity: 0.009308815002 Time of Applicability(s): 589824 Orbital Inclination(rad): 0.967728558 Rate of Right Ascen(r/s): -7.817468486e-09 SQRT(A) (m 1/2): 5153.682617 Right Ascen at Week(rad): -0.7628798051 Argument of Perigee(rad): -2.009278894 Mean Anom(rad): -2.849772284 Af0(s): -7.310640869e-05 Af1(s/s): 1.818989e-11 week: 357